#datetime,building,power
2022-11-01T00:00:00,pth,2.40
2022-11-01T00:02:00,pth,3.60
2022-11-01T00:06:00,pth,6.00
2022-11-01T00:08:00,pth,3.60
2022-11-01T00:10:00,pth,3.60
2022-11-01T00:11:00,pth,1.20
2022-11-01T00:13:00,pth,2.40
2022-11-01T00:14:00,pth,1.20
2022-11-01T00:16:00,pth,2.40
2022-11-01T00:17:00,pth,1.20
2022-11-01T00:19:00,pth,2.40
2022-11-01T00:21:00,pth,3.60
2022-11-01T00:22:00,pth,1.20
2022-11-01T00:24:00,pth,2.40
2022-11-01T00:25:00,pth,1.20
2022-11-01T00:27:00,pth,2.40
2022-11-01T00:28:00,pth,1.20
2022-11-01T00:30:00,pth,2.40
2022-11-01T00:32:00,pth,3.60
2022-11-01T00:33:00,pth,1.20
2022-11-01T00:34:00,pth,1.20
2022-11-01T00:36:00,pth,2.40
2022-11-01T00:37:00,pth,1.20
2022-11-01T00:39:00,pth,2.40
2022-11-01T00:40:00,pth,1.20
2022-11-01T00:42:00,pth,2.40
2022-11-01T00:44:00,pth,2.40
2022-11-01T00:45:00,pth,1.20
2022-11-01T00:47:00,pth,2.40
2022-11-01T00:49:00,pth,2.40
2022-11-01T00:50:00,pth,1.20
2022-11-01T00:51:00,pth,1.20
2022-11-01T00:53:00,pth,2.40
2022-11-01T00:54:00,pth,1.20
2022-11-01T00:56:00,pth,2.40
2022-11-01T00:58:00,pth,3.60
2022-11-01T01:00:00,pth,3.60
2022-11-01T01:01:00,pth,1.20
2022-11-01T01:03:00,pth,2.40
2022-11-01T01:05:00,pth,3.60
2022-11-01T01:07:00,pth,2.40
2022-11-01T01:09:00,pth,2.40
2022-11-01T01:11:00,pth,2.40
2022-11-01T01:12:00,pth,2.40
2022-11-01T01:13:00,pth,1.20
2022-11-01T01:15:00,pth,2.40
2022-11-01T01:17:00,pth,2.40
2022-11-01T01:19:00,pth,2.40
2022-11-01T01:21:00,pth,2.40
2022-11-01T01:22:00,pth,1.20
2022-11-01T01:23:00,pth,1.20
2022-11-01T01:25:00,pth,1.20
2022-11-01T01:27:00,pth,2.40
2022-11-01T01:28:00,pth,1.20
2022-11-01T01:30:00,pth,2.40
2022-11-01T01:32:00,pth,2.40
2022-11-01T01:34:00,pth,2.40
2022-11-01T01:36:00,pth,2.40
2022-11-01T01:38:00,pth,2.40
2022-11-01T01:40:00,pth,3.60
2022-11-01T01:41:00,pth,1.20
2022-11-01T01:43:00,pth,2.40
2022-11-01T01:45:00,pth,2.40
2022-11-01T01:47:00,pth,2.40
2022-11-01T01:48:00,pth,1.20
2022-11-01T01:49:00,pth,1.20
2022-11-01T01:51:00,pth,2.40
2022-11-01T01:52:00,pth,1.20
2022-11-01T01:54:00,pth,2.40
2022-11-01T01:56:00,pth,2.40
2022-11-01T01:58:00,pth,2.40
2022-11-01T02:00:00,pth,2.40
2022-11-01T02:02:00,pth,2.40
2022-11-01T02:04:00,pth,2.40
2022-11-01T02:06:00,pth,3.60
2022-11-01T02:08:00,pth,2.40
2022-11-01T02:10:00,pth,2.40
2022-11-01T02:12:00,pth,2.40
2022-11-01T02:14:00,pth,2.40
2022-11-01T02:16:00,pth,2.40
2022-11-01T02:18:00,pth,3.60
2022-11-01T02:20:00,pth,2.40
2022-11-01T02:22:00,pth,2.40
2022-11-01T02:24:00,pth,2.40
2022-11-01T02:26:00,pth,2.40
2022-11-01T02:27:00,pth,1.20
2022-11-01T02:29:00,pth,3.60
2022-11-01T02:31:00,pth,2.40
2022-11-01T02:32:00,pth,1.20
2022-11-01T02:34:00,pth,2.40
2022-11-01T02:36:00,pth,2.40
2022-11-01T02:38:00,pth,1.20
2022-11-01T02:40:00,pth,2.40
2022-11-01T02:41:00,pth,1.20
2022-11-01T02:43:00,pth,2.40
2022-11-01T02:44:00,pth,2.40
2022-11-01T02:46:00,pth,2.40
2022-11-01T02:48:00,pth,2.40
2022-11-01T02:50:00,pth,2.40
2022-11-01T02:53:00,pth,2.40
2022-11-01T02:55:00,pth,2.40
2022-11-01T02:57:00,pth,2.40
2022-11-01T02:58:00,pth,1.20
2022-11-01T03:00:00,pth,2.40
2022-11-01T03:01:00,pth,1.20
2022-11-01T03:03:00,pth,2.40
2022-11-01T03:05:00,pth,1.20
2022-11-01T03:07:00,pth,2.40
2022-11-01T03:09:00,pth,2.40
2022-11-01T03:10:00,pth,1.20
2022-11-01T03:11:00,pth,1.20
2022-11-01T03:13:00,pth,2.40
2022-11-01T03:15:00,pth,2.40
2022-11-01T03:17:00,pth,2.40
2022-11-01T03:19:00,pth,2.40
2022-11-01T03:21:00,pth,2.40
2022-11-01T03:23:00,pth,2.40
2022-11-01T03:25:00,pth,2.40
2022-11-01T03:27:00,pth,1.20
2022-11-01T03:29:00,pth,2.40
2022-11-01T03:31:00,pth,2.40
2022-11-01T03:33:00,pth,1.20
2022-11-01T03:35:00,pth,2.40
2022-11-01T03:37:00,pth,2.40
2022-11-01T03:39:00,pth,2.40
2022-11-01T03:41:00,pth,1.20
2022-11-01T03:43:00,pth,2.40
2022-11-01T03:44:00,pth,1.20
2022-11-01T03:46:00,pth,2.40
2022-11-01T03:48:00,pth,3.60
2022-11-01T03:50:00,pth,2.40
2022-11-01T03:52:00,pth,2.40
2022-11-01T03:54:00,pth,2.40
2022-11-01T03:56:00,pth,1.20
2022-11-01T03:58:00,pth,2.40
2022-11-01T04:00:00,pth,2.40
2022-11-01T04:02:00,pth,2.40
2022-11-01T04:05:00,pth,2.40
2022-11-01T04:07:00,pth,2.40
2022-11-01T04:08:00,pth,1.20
2022-11-01T04:10:00,pth,2.40
2022-11-01T04:12:00,pth,1.20
2022-11-01T04:13:00,pth,1.20
2022-11-01T04:15:00,pth,2.40
2022-11-01T04:17:00,pth,2.40
2022-11-01T04:19:00,pth,2.40
2022-11-01T04:22:00,pth,2.40
2022-11-01T04:24:00,pth,2.40
2022-11-01T04:26:00,pth,2.40
2022-11-01T04:28:00,pth,3.60
2022-11-01T04:30:00,pth,2.40
2022-11-01T04:32:00,pth,2.40
2022-11-01T04:34:00,pth,2.40
2022-11-01T04:36:00,pth,1.20
2022-11-01T04:37:00,pth,1.20
2022-11-01T04:39:00,pth,2.40
2022-11-01T04:41:00,pth,2.40
2022-11-01T04:42:00,pth,1.20
2022-11-01T04:44:00,pth,1.20
2022-11-01T04:45:00,pth,1.20
2022-11-01T04:47:00,pth,2.40
2022-11-01T04:49:00,pth,2.40
2022-11-01T04:51:00,pth,1.20
2022-11-01T04:53:00,pth,2.40
2022-11-01T04:55:00,pth,2.40
2022-11-01T04:56:00,pth,1.20
2022-11-01T04:58:00,pth,1.20
2022-11-01T05:00:00,pth,2.40
2022-11-01T05:02:00,pth,1.20
2022-11-01T05:04:00,pth,2.40
2022-11-01T05:05:00,pth,1.20
2022-11-01T05:07:00,pth,2.40
2022-11-01T05:08:00,pth,1.20
2022-11-01T05:10:00,pth,2.40
2022-11-01T05:12:00,pth,2.40
2022-11-01T05:13:00,pth,1.20
2022-11-01T05:15:00,pth,2.40
2022-11-01T05:16:00,pth,1.20
2022-11-01T05:18:00,pth,2.40
2022-11-01T05:20:00,pth,1.20
2022-11-01T05:22:00,pth,2.40
2022-11-01T05:23:00,pth,1.20
2022-11-01T05:25:00,pth,1.20
2022-11-01T05:27:00,pth,2.40
2022-11-01T05:28:00,pth,1.20
2022-11-01T05:30:00,pth,2.40
2022-11-01T05:32:00,pth,2.40
2022-11-01T05:33:00,pth,1.20
2022-11-01T05:34:00,pth,1.20
2022-11-01T05:36:00,pth,2.40
2022-11-01T05:37:00,pth,1.20
2022-11-01T05:39:00,pth,2.40
2022-11-01T05:40:00,pth,1.20
2022-11-01T05:42:00,pth,2.40
2022-11-01T05:43:00,pth,1.20
2022-11-01T05:45:00,pth,2.40
2022-11-01T05:46:00,pth,1.20
2022-11-01T05:48:00,pth,2.40
2022-11-01T05:50:00,pth,2.40
2022-11-01T05:52:00,pth,2.40
2022-11-01T05:54:00,pth,2.40
2022-11-01T05:56:00,pth,2.40
2022-11-01T05:57:00,pth,1.20
2022-11-01T05:59:00,pth,1.20
2022-11-01T06:01:00,pth,2.40
2022-11-01T06:03:00,pth,2.40
2022-11-01T06:05:00,pth,2.40
2022-11-01T06:06:00,pth,2.40
2022-11-01T06:07:00,pth,2.40
2022-11-01T06:09:00,pth,1.20
2022-11-01T06:11:00,pth,2.40
2022-11-01T06:13:00,pth,2.40
2022-11-01T06:15:00,pth,2.40
2022-11-01T06:17:00,pth,2.40
2022-11-01T06:19:00,pth,2.40
2022-11-01T06:21:00,pth,2.40
2022-11-01T06:24:00,pth,2.40
2022-11-01T06:26:00,pth,2.40
2022-11-01T06:27:00,pth,1.20
2022-11-01T06:29:00,pth,2.40
2022-11-01T06:31:00,pth,2.40
2022-11-01T06:33:00,pth,1.20
2022-11-01T06:34:00,pth,1.20
2022-11-01T06:36:00,pth,2.40
2022-11-01T06:37:00,pth,1.20
2022-11-01T06:39:00,pth,1.20
2022-11-01T06:41:00,pth,2.40
2022-11-01T06:43:00,pth,2.40
2022-11-01T06:45:00,pth,2.40
2022-11-01T06:47:00,pth,1.20
2022-11-01T06:49:00,pth,2.40
2022-11-01T06:50:00,pth,1.20
2022-11-01T06:52:00,pth,1.20
2022-11-01T06:54:00,pth,2.40
2022-11-01T06:56:00,pth,2.40
2022-11-01T06:58:00,pth,3.60
2022-11-01T07:00:00,pth,2.40
2022-11-01T07:02:00,pth,2.40
2022-11-01T07:03:00,pth,1.20
2022-11-01T07:05:00,pth,2.40
2022-11-01T07:07:00,pth,2.40
2022-11-01T07:09:00,pth,2.40
2022-11-01T07:11:00,pth,2.40
2022-11-01T07:13:00,pth,1.20
2022-11-01T07:15:00,pth,2.40
2022-11-01T07:17:00,pth,2.40
2022-11-01T07:18:00,pth,1.20
2022-11-01T07:20:00,pth,1.20
2022-11-01T07:22:00,pth,2.40
2022-11-01T07:24:00,pth,2.40
2022-11-01T07:26:00,pth,2.40
2022-11-01T07:27:00,pth,1.20
2022-11-01T07:29:00,pth,2.40
2022-11-01T07:31:00,pth,2.40
2022-11-01T07:33:00,pth,2.40
2022-11-01T07:34:00,pth,1.20
2022-11-01T07:36:00,pth,2.40
2022-11-01T07:38:00,pth,2.40
2022-11-01T07:40:00,pth,2.40
2022-11-01T07:41:00,pth,1.20
2022-11-01T07:42:00,pth,1.20
2022-11-01T07:44:00,pth,2.40
2022-11-01T07:46:00,pth,2.40
2022-11-01T07:48:00,pth,2.40
2022-11-01T07:50:00,pth,2.40
2022-11-01T07:52:00,pth,2.40
2022-11-01T07:54:00,pth,2.40
2022-11-01T07:56:00,pth,2.40
2022-11-01T07:58:00,pth,2.40
2022-11-01T07:59:00,pth,1.20
2022-11-01T08:01:00,pth,2.40
2022-11-01T08:03:00,pth,1.20
2022-11-01T08:05:00,pth,2.40
2022-11-01T08:07:00,pth,2.40
2022-11-01T08:08:00,pth,1.20
2022-11-01T08:10:00,pth,1.20
2022-11-01T08:12:00,pth,1.20
2022-11-01T08:14:00,pth,2.40
2022-11-01T08:15:00,pth,1.20
2022-11-01T08:17:00,pth,1.20
2022-11-01T08:19:00,pth,2.40
2022-11-01T08:20:00,pth,1.20
2022-11-01T08:22:00,pth,2.40
2022-11-01T08:24:00,pth,1.20
2022-11-01T08:26:00,pth,2.40
2022-11-01T08:28:00,pth,1.20
2022-11-01T08:30:00,pth,3.60
2022-11-01T08:32:00,pth,3.60
2022-11-01T08:33:00,pth,2.40
2022-11-01T08:35:00,pth,2.40
2022-11-01T08:37:00,pth,1.20
2022-11-01T08:39:00,pth,2.40
2022-11-01T08:41:00,pth,1.20
2022-11-01T08:42:00,pth,1.20
2022-11-01T08:43:00,pth,1.20
2022-11-01T08:44:00,pth,1.20
2022-11-01T08:46:00,pth,2.40
2022-11-01T08:48:00,pth,1.20
2022-11-01T08:49:00,pth,1.20
2022-11-01T08:51:00,pth,2.40
2022-11-01T08:53:00,pth,2.40
2022-11-01T08:55:00,pth,1.20
2022-11-01T08:57:00,pth,2.40
2022-11-01T09:00:00,pth,1.20
2022-11-01T09:01:00,pth,1.20
2022-11-01T09:02:00,pth,1.20
2022-11-01T09:03:00,pth,1.20
2022-11-01T09:04:00,pth,1.20
2022-11-01T09:07:00,pth,2.40
2022-11-01T09:09:00,pth,1.20
2022-11-01T09:11:00,pth,2.40
2022-11-01T09:13:00,pth,1.20
2022-11-01T09:14:00,pth,1.20
2022-11-01T09:16:00,pth,1.20
2022-11-01T09:17:00,pth,1.20
2022-11-01T09:19:00,pth,1.20
2022-11-01T09:20:00,pth,1.20
2022-11-01T09:22:00,pth,1.20
2022-11-01T09:23:00,pth,1.20
2022-11-01T09:25:00,pth,1.20
2022-11-01T09:27:00,pth,2.40
2022-11-01T09:29:00,pth,1.20
2022-11-01T09:31:00,pth,2.40
2022-11-01T09:33:00,pth,1.20
2022-11-01T09:34:00,pth,1.20
2022-11-01T09:36:00,pth,1.20
2022-11-01T09:38:00,pth,1.20
2022-11-01T09:40:00,pth,1.20
2022-11-01T09:41:00,pth,1.20
2022-11-01T09:45:00,pth,2.40
2022-11-01T09:47:00,pth,1.20
2022-11-01T09:49:00,pth,1.20
2022-11-01T09:51:00,pth,2.40
2022-11-01T09:52:00,pth,1.20
2022-11-01T09:54:00,pth,1.20
2022-11-01T09:56:00,pth,1.20
2022-11-01T09:58:00,pth,2.40
2022-11-01T10:00:00,pth,1.20
2022-11-01T10:01:00,pth,1.20
2022-11-01T10:04:00,pth,2.40
2022-11-01T10:05:00,pth,1.20
2022-11-01T10:07:00,pth,1.20
2022-11-01T10:09:00,pth,2.40
2022-11-01T10:11:00,pth,2.40
2022-11-01T10:13:00,pth,2.40
2022-11-01T10:15:00,pth,2.40
2022-11-01T10:16:00,pth,1.20
2022-11-01T10:18:00,pth,1.20
2022-11-01T10:20:00,pth,2.40
2022-11-01T10:23:00,pth,2.40
2022-11-01T10:25:00,pth,1.20
2022-11-01T10:27:00,pth,2.40
2022-11-01T10:29:00,pth,1.20
2022-11-01T10:31:00,pth,2.40
2022-11-01T10:32:00,pth,1.20
2022-11-01T10:34:00,pth,1.20
2022-11-01T10:36:00,pth,2.40
2022-11-01T10:37:00,pth,1.20
2022-11-01T10:38:00,pth,1.20
2022-11-01T10:39:00,pth,1.20
2022-11-01T10:41:00,pth,2.40
2022-11-01T10:43:00,pth,2.40
2022-11-01T10:45:00,pth,2.40
2022-11-01T10:47:00,pth,2.40
2022-11-01T10:48:00,pth,1.20
2022-11-01T10:50:00,pth,1.20
2022-11-01T10:52:00,pth,2.40
2022-11-01T10:53:00,pth,1.20
2022-11-01T10:55:00,pth,1.20
2022-11-01T10:57:00,pth,1.20
2022-11-01T10:59:00,pth,2.40
2022-11-01T11:00:00,pth,1.20
2022-11-01T11:02:00,pth,1.20
2022-11-01T11:04:00,pth,2.40
2022-11-01T11:05:00,pth,1.20
2022-11-01T11:07:00,pth,1.20
2022-11-01T11:08:00,pth,1.20
2022-11-01T11:11:00,pth,2.40
2022-11-01T11:13:00,pth,3.60
2022-11-01T11:15:00,pth,4.80
2022-11-01T11:17:00,pth,3.60
2022-11-01T11:18:00,pth,1.20
2022-11-01T11:19:00,pth,1.20
2022-11-01T11:21:00,pth,1.20
2022-11-01T11:22:00,pth,1.20
2022-11-01T11:24:00,pth,1.20
2022-11-01T11:27:00,pth,1.20
2022-11-01T11:29:00,pth,1.20
2022-11-01T11:31:00,pth,1.20
2022-11-01T11:35:00,pth,1.20
2022-11-01T11:36:00,pth,1.20
2022-11-01T11:38:00,pth,1.20
2022-11-01T11:41:00,pth,1.20
2022-11-01T11:43:00,pth,1.20
2022-11-01T11:45:00,pth,1.20
2022-11-01T11:47:00,pth,1.20
2022-11-01T11:48:00,pth,2.40
2022-11-01T11:50:00,pth,3.60
2022-11-01T11:51:00,pth,1.20
2022-11-01T11:52:00,pth,2.40
2022-11-01T11:54:00,pth,2.40
2022-11-01T11:56:00,pth,1.20
2022-11-01T11:59:00,pth,2.40
2022-11-01T12:01:00,pth,1.20
2022-11-01T12:03:00,pth,1.20
2022-11-01T12:05:00,pth,1.20
2022-11-01T12:07:00,pth,1.20
2022-11-01T12:09:00,pth,1.20
2022-11-01T12:11:00,pth,2.40
2022-11-01T12:13:00,pth,1.20
2022-11-01T12:15:00,pth,1.20
2022-11-01T12:16:00,pth,1.20
2022-11-01T12:18:00,pth,1.20
2022-11-01T12:20:00,pth,1.20
2022-11-01T12:22:00,pth,1.20
2022-11-01T12:25:00,pth,1.20
2022-11-01T12:27:00,pth,1.20
2022-11-01T12:29:00,pth,1.20
2022-11-01T12:31:00,pth,2.40
2022-11-01T12:33:00,pth,1.20
2022-11-01T12:35:00,pth,4.80
2022-11-01T12:37:00,pth,2.40
2022-11-01T12:39:00,pth,1.20
2022-11-01T12:41:00,pth,1.20
2022-11-01T12:43:00,pth,1.20
2022-11-01T12:46:00,pth,2.40
2022-11-01T12:48:00,pth,1.20
2022-11-01T12:50:00,pth,1.20
2022-11-01T12:52:00,pth,1.20
2022-11-01T12:54:00,pth,1.20
2022-11-01T12:56:00,pth,1.20
2022-11-01T12:58:00,pth,1.20
2022-11-01T12:59:00,pth,1.20
2022-11-01T13:01:00,pth,2.40
2022-11-01T13:02:00,pth,1.20
2022-11-01T13:04:00,pth,1.20
2022-11-01T13:06:00,pth,2.40
2022-11-01T13:08:00,pth,1.20
2022-11-01T13:09:00,pth,1.20
2022-11-01T13:10:00,pth,1.20
2022-11-01T13:12:00,pth,1.20
2022-11-01T13:13:00,pth,1.20
2022-11-01T13:15:00,pth,2.40
2022-11-01T13:16:00,pth,1.20
2022-11-01T13:18:00,pth,2.40
2022-11-01T13:20:00,pth,2.40
2022-11-01T13:21:00,pth,1.20
2022-11-01T13:23:00,pth,2.40
2022-11-01T13:25:00,pth,2.40
2022-11-01T13:27:00,pth,3.60
2022-11-01T13:29:00,pth,2.40
2022-11-01T13:30:00,pth,1.20
2022-11-01T13:32:00,pth,3.60
2022-11-01T13:33:00,pth,3.60
2022-11-01T13:34:00,pth,2.40
2022-11-01T13:35:00,pth,1.20
2022-11-01T13:37:00,pth,3.60
2022-11-01T13:38:00,pth,1.20
2022-11-01T13:40:00,pth,2.40
2022-11-01T13:42:00,pth,1.20
2022-11-01T13:44:00,pth,2.40
2022-11-01T13:47:00,pth,4.80
2022-11-01T13:49:00,pth,2.40
2022-11-01T13:51:00,pth,1.20
2022-11-01T13:53:00,pth,2.40
2022-11-01T13:55:00,pth,7.20
2022-11-01T13:56:00,pth,7.20
2022-11-01T13:58:00,pth,13.20
2022-11-01T14:00:00,pth,13.20
2022-11-01T14:02:00,pth,9.60
2022-11-01T14:03:00,pth,6.00
2022-11-01T14:05:00,pth,9.60
2022-11-01T14:07:00,pth,10.80
2022-11-01T14:08:00,pth,4.80
2022-11-01T14:10:00,pth,9.60
2022-11-01T14:11:00,pth,3.60
2022-11-01T14:13:00,pth,8.40
2022-11-01T14:15:00,pth,9.60
2022-11-01T14:16:00,pth,7.20
2022-11-01T14:18:00,pth,8.40
2022-11-01T14:19:00,pth,3.60
2022-11-01T14:20:00,pth,4.80
2022-11-01T14:21:00,pth,3.60
2022-11-01T14:23:00,pth,8.40
2022-11-01T14:24:00,pth,3.60
2022-11-01T14:26:00,pth,7.20
2022-11-01T14:28:00,pth,8.40
2022-11-01T14:29:00,pth,4.80
2022-11-01T14:31:00,pth,8.40
2022-11-01T14:33:00,pth,8.40
2022-11-01T14:35:00,pth,8.40
2022-11-01T14:37:00,pth,7.20
2022-11-01T14:39:00,pth,7.20
2022-11-01T14:41:00,pth,7.20
2022-11-01T14:43:00,pth,8.40
2022-11-01T14:45:00,pth,7.20
2022-11-01T14:47:00,pth,7.20
2022-11-01T14:48:00,pth,4.80
2022-11-01T14:50:00,pth,8.40
2022-11-01T14:53:00,pth,2.40
2022-11-01T14:55:00,pth,1.20
2022-11-01T14:58:00,pth,1.20
2022-11-01T15:00:00,pth,1.20
2022-11-01T15:01:00,pth,1.20
2022-11-01T15:03:00,pth,1.20
2022-11-01T15:05:00,pth,2.40
2022-11-01T15:08:00,pth,1.20
2022-11-01T15:10:00,pth,1.20
2022-11-01T15:12:00,pth,1.20
2022-11-01T15:14:00,pth,2.40
2022-11-01T15:17:00,pth,1.20
2022-11-01T15:19:00,pth,1.20
2022-11-01T15:20:00,pth,1.20
2022-11-01T15:22:00,pth,1.20
2022-11-01T15:24:00,pth,1.20
2022-11-01T15:26:00,pth,2.40
2022-11-01T15:28:00,pth,3.60
2022-11-01T15:29:00,pth,1.20
2022-11-01T15:31:00,pth,2.40
2022-11-01T15:32:00,pth,1.20
2022-11-01T15:33:00,pth,2.40
2022-11-01T15:35:00,pth,2.40
2022-11-01T15:36:00,pth,1.20
2022-11-01T15:38:00,pth,2.40
2022-11-01T15:40:00,pth,3.60
2022-11-01T15:42:00,pth,2.40
2022-11-01T15:44:00,pth,2.40
2022-11-01T15:45:00,pth,2.40
2022-11-01T15:47:00,pth,2.40
2022-11-01T15:49:00,pth,2.40
2022-11-01T15:50:00,pth,1.20
2022-11-01T15:52:00,pth,2.40
2022-11-01T15:54:00,pth,3.60
2022-11-01T15:56:00,pth,2.40
2022-11-01T15:58:00,pth,4.80
2022-11-01T15:59:00,pth,2.40
2022-11-01T16:01:00,pth,3.60
2022-11-01T16:03:00,pth,2.40
2022-11-01T16:05:00,pth,3.60
2022-11-01T16:07:00,pth,2.40
2022-11-01T16:09:00,pth,6.00
2022-11-01T16:11:00,pth,13.20
2022-11-01T16:13:00,pth,13.20
2022-11-01T16:14:00,pth,6.00
2022-11-01T16:16:00,pth,12.00
2022-11-01T16:18:00,pth,8.40
2022-11-01T16:20:00,pth,8.40
2022-11-01T16:21:00,pth,6.00
2022-11-01T16:23:00,pth,8.40
2022-11-01T16:25:00,pth,7.20
2022-11-01T16:26:00,pth,6.00
2022-11-01T16:28:00,pth,8.40
2022-11-01T16:29:00,pth,4.80
2022-11-01T16:30:00,pth,2.40
2022-11-01T16:32:00,pth,8.40
2022-11-01T16:34:00,pth,9.60
2022-11-01T16:35:00,pth,3.60
2022-11-01T16:37:00,pth,8.40
2022-11-01T16:39:00,pth,8.40
2022-11-01T16:40:00,pth,6.00
2022-11-01T16:42:00,pth,8.40
2022-11-01T16:44:00,pth,7.20
2022-11-01T16:46:00,pth,8.40
2022-11-01T16:48:00,pth,7.20
2022-11-01T16:49:00,pth,7.20
2022-11-01T16:51:00,pth,8.40
2022-11-01T16:53:00,pth,9.60
2022-11-01T16:55:00,pth,8.40
2022-11-01T16:57:00,pth,8.40
2022-11-01T16:59:00,pth,9.60
2022-11-01T17:01:00,pth,9.60
2022-11-01T17:03:00,pth,8.40
2022-11-01T17:05:00,pth,8.40
2022-11-01T17:07:00,pth,2.40
2022-11-01T17:09:00,pth,2.40
2022-11-01T17:11:00,pth,1.20
2022-11-01T17:13:00,pth,2.40
2022-11-01T17:15:00,pth,1.20
2022-11-01T17:16:00,pth,1.20
2022-11-01T17:19:00,pth,2.40
2022-11-01T17:21:00,pth,1.20
2022-11-01T17:22:00,pth,1.20
2022-11-01T17:24:00,pth,2.40
2022-11-01T17:26:00,pth,1.20
2022-11-01T17:28:00,pth,2.40
2022-11-01T17:30:00,pth,1.20
2022-11-01T17:32:00,pth,2.40
2022-11-01T17:34:00,pth,2.40
2022-11-01T17:35:00,pth,1.20
2022-11-01T17:37:00,pth,1.20
2022-11-01T17:39:00,pth,1.20
2022-11-01T17:40:00,pth,1.20
2022-11-01T17:41:00,pth,1.20
2022-11-01T17:43:00,pth,1.20
2022-11-01T17:45:00,pth,3.60
2022-11-01T17:47:00,pth,2.40
2022-11-01T17:48:00,pth,1.20
2022-11-01T17:50:00,pth,2.40
2022-11-01T17:52:00,pth,3.60
2022-11-01T17:53:00,pth,1.20
2022-11-01T17:55:00,pth,3.60
2022-11-01T17:57:00,pth,3.60
2022-11-01T17:58:00,pth,1.20
2022-11-01T18:00:00,pth,3.60
2022-11-01T18:02:00,pth,3.60
2022-11-01T18:03:00,pth,2.40
2022-11-01T18:05:00,pth,2.40
2022-11-01T18:07:00,pth,3.60
2022-11-01T18:08:00,pth,2.40
2022-11-01T18:10:00,pth,3.60
2022-11-01T18:12:00,pth,2.40
2022-11-01T18:14:00,pth,3.60
2022-11-01T18:16:00,pth,2.40
2022-11-01T18:18:00,pth,2.40
2022-11-01T18:20:00,pth,2.40
2022-11-01T18:21:00,pth,1.20
2022-11-01T18:23:00,pth,2.40
2022-11-01T18:25:00,pth,2.40
2022-11-01T18:27:00,pth,2.40
2022-11-01T18:29:00,pth,2.40
2022-11-01T18:31:00,pth,2.40
2022-11-01T18:32:00,pth,1.20
2022-11-01T18:34:00,pth,2.40
2022-11-01T18:36:00,pth,2.40
2022-11-01T18:38:00,pth,1.20
2022-11-01T18:40:00,pth,2.40
2022-11-01T18:41:00,pth,1.20
2022-11-01T18:43:00,pth,2.40
2022-11-01T18:45:00,pth,4.80
2022-11-01T18:47:00,pth,6.00
2022-11-01T18:49:00,pth,6.00
2022-11-01T18:51:00,pth,4.80
2022-11-01T18:53:00,pth,3.60
2022-11-01T18:55:00,pth,2.40
2022-11-01T18:57:00,pth,3.60
2022-11-01T18:59:00,pth,2.40
2022-11-01T19:01:00,pth,3.60
2022-11-01T19:03:00,pth,3.60
2022-11-01T19:05:00,pth,2.40
2022-11-01T19:07:00,pth,3.60
2022-11-01T19:09:00,pth,2.40
2022-11-01T19:10:00,pth,1.20
2022-11-01T19:12:00,pth,2.40
2022-11-01T19:14:00,pth,1.20
2022-11-01T19:16:00,pth,2.40
2022-11-01T19:18:00,pth,2.40
2022-11-01T19:20:00,pth,2.40
2022-11-01T19:22:00,pth,2.40
2022-11-01T19:24:00,pth,3.60
2022-11-01T19:26:00,pth,2.40
2022-11-01T19:28:00,pth,3.60
2022-11-01T19:30:00,pth,2.40
2022-11-01T19:33:00,pth,2.40
2022-11-01T19:35:00,pth,2.40
2022-11-01T19:37:00,pth,2.40
2022-11-01T19:39:00,pth,2.40
2022-11-01T19:40:00,pth,1.20
2022-11-01T19:42:00,pth,2.40
2022-11-01T19:44:00,pth,2.40
2022-11-01T19:46:00,pth,2.40
2022-11-01T19:48:00,pth,2.40
2022-11-01T19:50:00,pth,2.40
2022-11-01T19:52:00,pth,2.40
2022-11-01T19:55:00,pth,2.40
2022-11-01T19:57:00,pth,2.40
2022-11-01T19:59:00,pth,2.40
2022-11-01T20:01:00,pth,2.40
2022-11-01T20:02:00,pth,1.20
2022-11-01T20:04:00,pth,2.40
2022-11-01T20:06:00,pth,1.20
2022-11-01T20:08:00,pth,2.40
2022-11-01T20:10:00,pth,2.40
2022-11-01T20:12:00,pth,2.40
2022-11-01T20:14:00,pth,2.40
2022-11-01T20:16:00,pth,2.40
2022-11-01T20:17:00,pth,1.20
2022-11-01T20:18:00,pth,1.20
2022-11-01T20:19:00,pth,2.40
2022-11-01T20:20:00,pth,2.40
2022-11-01T20:22:00,pth,2.40
2022-11-01T20:23:00,pth,1.20
2022-11-01T20:25:00,pth,2.40
2022-11-01T20:27:00,pth,3.60
2022-11-01T20:29:00,pth,2.40
2022-11-01T20:30:00,pth,1.20
2022-11-01T20:32:00,pth,2.40
2022-11-01T20:34:00,pth,3.60
2022-11-01T20:36:00,pth,2.40
2022-11-01T20:37:00,pth,1.20
2022-11-01T20:39:00,pth,2.40
2022-11-01T20:41:00,pth,2.40
2022-11-01T20:43:00,pth,3.60
2022-11-01T20:44:00,pth,1.20
2022-11-01T20:46:00,pth,3.60
2022-11-01T20:48:00,pth,2.40
2022-11-01T20:50:00,pth,2.40
2022-11-01T20:52:00,pth,2.40
2022-11-01T20:54:00,pth,6.00
2022-11-01T20:56:00,pth,14.40
2022-11-01T20:57:00,pth,7.20
2022-11-01T20:59:00,pth,13.20
2022-11-01T21:01:00,pth,14.40
2022-11-01T21:03:00,pth,13.20
2022-11-01T21:05:00,pth,14.40
2022-11-01T21:07:00,pth,13.20
2022-11-01T21:09:00,pth,13.20
2022-11-01T21:10:00,pth,4.80
2022-11-01T21:12:00,pth,10.80
2022-11-01T21:13:00,pth,6.00
2022-11-01T21:14:00,pth,1.20
2022-11-01T21:16:00,pth,12.00
2022-11-01T21:17:00,pth,4.80
2022-11-01T21:18:00,pth,3.60
2022-11-01T21:20:00,pth,12.00
2022-11-01T21:22:00,pth,7.20
2022-11-01T21:24:00,pth,7.20
2022-11-01T21:26:00,pth,9.60
2022-11-01T21:28:00,pth,7.20
2022-11-01T21:29:00,pth,3.60
2022-11-01T21:31:00,pth,8.40
2022-11-01T21:32:00,pth,4.80
2022-11-01T21:34:00,pth,8.40
2022-11-01T21:36:00,pth,9.60
2022-11-01T21:38:00,pth,8.40
2022-11-01T21:40:00,pth,8.40
2022-11-01T21:42:00,pth,10.80
2022-11-01T21:43:00,pth,2.40
2022-11-01T21:45:00,pth,10.80
2022-11-01T21:47:00,pth,12.00
2022-11-01T21:49:00,pth,9.60
2022-11-01T21:51:00,pth,10.80
2022-11-01T21:52:00,pth,2.40
2022-11-01T21:54:00,pth,3.60
2022-11-01T21:55:00,pth,1.20
2022-11-01T21:57:00,pth,3.60
2022-11-01T21:59:00,pth,2.40
2022-11-01T22:01:00,pth,2.40
2022-11-01T22:03:00,pth,2.40
2022-11-01T22:04:00,pth,1.20
2022-11-01T22:05:00,pth,2.40
2022-11-01T22:07:00,pth,2.40
2022-11-01T22:09:00,pth,6.00
2022-11-01T22:11:00,pth,3.60
2022-11-01T22:12:00,pth,2.40
2022-11-01T22:14:00,pth,4.80
2022-11-01T22:16:00,pth,4.80
2022-11-01T22:18:00,pth,3.60
2022-11-01T22:20:00,pth,2.40
2022-11-01T22:22:00,pth,2.40
2022-11-01T22:24:00,pth,2.40
2022-11-01T22:26:00,pth,2.40
2022-11-01T22:28:00,pth,2.40
2022-11-01T22:29:00,pth,1.20
2022-11-01T22:30:00,pth,2.40
2022-11-01T22:32:00,pth,2.40
2022-11-01T22:33:00,pth,1.20
2022-11-01T22:35:00,pth,2.40
2022-11-01T22:37:00,pth,3.60
2022-11-01T22:39:00,pth,7.20
2022-11-01T22:41:00,pth,7.20
2022-11-01T22:42:00,pth,4.80
2022-11-01T22:44:00,pth,8.40
2022-11-01T22:46:00,pth,8.40
2022-11-01T22:48:00,pth,7.20
2022-11-01T22:50:00,pth,8.40
2022-11-01T22:52:00,pth,4.80
2022-11-01T22:54:00,pth,3.60
2022-11-01T22:56:00,pth,8.40
2022-11-01T22:58:00,pth,3.60
2022-11-01T23:00:00,pth,3.60
2022-11-01T23:01:00,pth,3.60
2022-11-01T23:03:00,pth,8.40
2022-11-01T23:05:00,pth,3.60
2022-11-01T23:07:00,pth,3.60
2022-11-01T23:09:00,pth,2.40
2022-11-01T23:10:00,pth,1.20
2022-11-01T23:12:00,pth,2.40
2022-11-01T23:13:00,pth,1.20
2022-11-01T23:15:00,pth,3.60
2022-11-01T23:16:00,pth,1.20
2022-11-01T23:18:00,pth,2.40
2022-11-01T23:19:00,pth,1.20
2022-11-01T23:21:00,pth,3.60
2022-11-01T23:23:00,pth,2.40
2022-11-01T23:25:00,pth,2.40
2022-11-01T23:27:00,pth,2.40
2022-11-01T23:28:00,pth,1.20
2022-11-01T23:29:00,pth,1.20
2022-11-01T23:30:00,pth,2.40
2022-11-01T23:32:00,pth,2.40
2022-11-01T23:33:00,pth,1.20
2022-11-01T23:35:00,pth,2.40
2022-11-01T23:37:00,pth,2.40
2022-11-01T23:38:00,pth,1.20
2022-11-01T23:39:00,pth,1.20
2022-11-01T23:41:00,pth,2.40
2022-11-01T23:43:00,pth,2.40
2022-11-01T23:44:00,pth,1.20
2022-11-01T23:46:00,pth,3.60
2022-11-01T23:48:00,pth,2.40
2022-11-01T23:50:00,pth,3.60
2022-11-01T23:51:00,pth,1.20
2022-11-01T23:53:00,pth,2.40
2022-11-01T23:54:00,pth,1.20
2022-11-01T23:56:00,pth,2.40
2022-11-01T23:58:00,pth,3.60
2022-11-01T23:59:00,pth,1.20
2022-11-02T00:01:00,pth,2.40
2022-11-02T00:02:00,pth,1.20
2022-11-02T00:04:00,pth,2.40
2022-11-02T00:06:00,pth,2.40
2022-11-02T00:08:00,pth,2.40
2022-11-02T00:10:00,pth,3.60
2022-11-02T00:12:00,pth,2.40
2022-11-02T00:14:00,pth,2.40
2022-11-02T00:15:00,pth,2.40
2022-11-02T00:17:00,pth,2.40
2022-11-02T00:19:00,pth,2.40
2022-11-02T00:21:00,pth,2.40
2022-11-02T00:22:00,pth,1.20
2022-11-02T00:24:00,pth,2.40
2022-11-02T00:26:00,pth,2.40
2022-11-02T00:28:00,pth,2.40
2022-11-02T00:30:00,pth,2.40
2022-11-02T00:31:00,pth,1.20
2022-11-02T00:32:00,pth,2.40